This is the latest recevied weather packets stored in our database for station/object KD4UFD. If no packets are shown the sender has not sent any weather packets the latest 10 day(s).
| Time | Temp. | Humidity | Pressure | Rain* | Wind** | Luminosity | Snow |
|---|---|---|---|---|---|---|---|
| 1778181127 | 16.11° C | 70% | 1013.3 hPa | 0 mm | - | 184 W/m² | - |
| 1778180823 | 16.11° C | 69% | 1013.2 hPa | 0 mm | - | 169 W/m² | - |
| 1778180522 | 16.67° C | 70% | 1013.5 hPa | 0 mm | - | 198 W/m² | - |
| 1778180220 | 16.67° C | 70% | 1013.5 hPa | 0 mm | - | 314 W/m² | - |
| 1778179917 | 16.67° C | 68% | 1013.1 hPa | 0 mm | - | 304 W/m² | - |
| 1778179614 | 16.67° C | 70% | 1013.3 hPa | 0 mm | - | 331 W/m² | - |
| 1778179312 | 16.67° C | 68% | 1013.2 hPa | 0 mm | - | 286 W/m² | - |
| 1778179008 | 16.67° C | 69% | 1013.2 hPa | 0 mm | - | 229 W/m² | - |
| 1778178705 | 17.22° C | 69% | 1013.3 hPa | 0 mm | - | 249 W/m² | - |
| 1778178403 | 16.67° C | 68% | 1013.2 hPa | 0 mm | - | 320 W/m² | - |
| 1778178098 | 17.22° C | 69% | 1013.6 hPa | 0 mm | - | 226 W/m² | - |
| 1778177794 | 17.22° C | 69% | 1013.3 hPa | 0 mm | - | 358 W/m² | - |
| 1778177491 | 17.22° C | 67% | 1013.3 hPa | 0 mm | - | 1006 W/m² | - |
| 1778177187 | 16.67° C | 68% | 1013.5 hPa | 0 mm | - | 698 W/m² | - |
| 1778176885 | 17.22° C | 70% | 1013.5 hPa | 0 mm | - | 353 W/m² | - |
| 1778176580 | 16.67° C | 74% | 1013.5 hPa | 0 mm | - | 480 W/m² | - |
| 1778176278 | 16.67° C | 72% | 1013.6 hPa | 0 mm | - | 276 W/m² | - |
| 1778175975 | 16.11° C | 70% | 1013.6 hPa | 0 mm | - | 310 W/m² | - |
| 1778175673 | 16.67° C | 71% | 1013.7 hPa | 0 mm | - | 947 W/m² | - |
| 1778175370 | 16.67° C | 73% | 1014 hPa | 0 mm | - | 989 W/m² | - |
| 1778175067 | 16.67° C | 73% | 1014.1 hPa | 0 mm | - | 317 W/m² | - |
| 1778174762 | 16.67° C | 73% | 1013.9 hPa | 0 mm | - | 264 W/m² | - |
| 1778174460 | 16.11° C | 73% | 1014 hPa | 0 mm | - | 1025 W/m² | - |
| 1778174155 | 16.11° C | 72% | 1014 hPa | 0 mm | - | 396 W/m² | - |
| 1778173852 | 16.11° C | 75% | 1013.8 hPa | 0 mm | - | 539 W/m² | - |
* Rain latest hour (hover to see other rain measurements)
** Current wind speed in m/s (hover to see current wind gust speed)